Location: Godiavel Galaoual
(15.2485°N, 12.6604°W)
Time: 01:54:44
(UTC+00:00)

Vanguard 1 Rocket - Visible Passes

Search period start: 13 June 2021 00:00
Search period end: 23 June 2021 00:00
Orbit: 651 x 4225 km, 34.3° (Epoch: 12 June)

Date Brightness Start Highest point End Pass type
(mag) Time Alt. Az. Time Alt. Az. Time Alt. Az.
13 Jun 10.6 01:05:40 10° WNW 01:18:08 41° N 01:39:33 10° ENE visible
13 Jun 11.1 03:34:46 10° NW 03:54:33 51° NNE 04:19:49 10° E visible
13 Jun 8.1 21:27:48 10° SW 21:34:17 86° SE 21:47:08 10° ENE visible
13 Jun 10.1 23:53:33 10° W 00:03:21 43° N 00:21:40 10° ENE visible
14 Jun 10.9 02:21:53 10° WNW 02:37:52 44° NNE 03:01:58 10° E visible
14 Jun 10.9 04:51:02 10° NW 05:14:26 70° NNE 05:39:14 10° ESE visible
14 Jun 8.0 20:17:56 10° SSW 20:23:13 44° SE 20:32:18 10° ENE visible
14 Jun 9.4 22:41:59 10° W 22:49:48 51° NNW 23:05:05 10° NE visible
15 Jun 10.7 01:09:27 10° WNW 01:21:58 39° N 01:43:08 10° ENE visible
15 Jun 11.0 03:37:55 10° NW 03:57:51 56° NNE 04:23:30 10° E visible
15 Jun 8.4 21:31:01 10° WSW 21:37:22 71° NNW 21:49:48 10° NE visible
15 Jun 10.3 23:57:22 10° WNW 00:07:06 38° N 00:24:43 10° ENE visible
16 Jun 10.9 02:25:19 10° NW 02:41:28 46° NNE 03:05:53 10° E visible
16 Jun 10.8 04:53:53 10° NW 05:17:08 78° NNE 05:42:18 10° ESE visible
16 Jun 7.6 20:20:42 10° SW 20:25:59 66° SE 20:35:24 10° ENE visible
16 Jun 9.7 22:45:41 10° W 22:53:21 41° NNW 23:07:45 10° NE visible
17 Jun 10.7 01:13:07 10° WNW 01:25:44 39° N 01:46:56 10° ENE visible
17 Jun 10.8 03:40:55 10° NW 04:00:53 62° NNE 04:26:58 10° ESE visible
17 Jun 8.8 21:34:27 10° W 21:40:40 53° NNW 21:52:24 10° NE visible
18 Jun 10.4 00:01:11 10° WNW 00:10:53 35° N 00:28:02 10° ENE visible
18 Jun 10.8 02:28:35 10° NW 02:44:52 50° NNE 03:09:44 10° E visible
18 Jun 10.7 04:56:42 10° WNW 05:19:40 88° NE 05:45:06 10° SE visible
18 Jun 7.7 20:23:44 10° WSW 20:28:58 84° NNW 20:38:16 10° ENE visible
18 Jun 10.0 22:49:30 10° WNW 22:57:02 35° N 23:10:35 10° NE visible
19 Jun 10.7 01:16:38 10° NW 01:29:24 40° NNE 01:50:53 10° E visible
19 Jun 10.7 03:43:51 10° NW 04:03:43 70° NNE 04:30:11 10° ESE visible
19 Jun 9.3 21:38:05 10° W 21:44:08 40° NNW 21:55:01 10° NE visible
20 Jun 10.5 00:04:56 10° NW 00:14:40 34° N 00:31:39 10° ENE visible
20 Jun 10.6 02:31:41 10° NW 02:48:03 55° NNE 03:13:23 10° E visible
20 Jun 10.6 04:59:35 10° WNW 05:22:04 81° SW 05:47:38 10° SE visible
20 Jun 8.2 20:27:03 10° WSW 20:32:10 58° NNW 20:40:59 10° NE visible
20 Jun 10.1 22:53:22 10° WNW 23:00:47 31° N 23:13:38 10° NE visible
21 Jun 10.6 01:19:59 10° NW 01:32:53 43° NNE 01:54:49 10° E visible
21 Jun 10.5 03:46:45 10° NW 04:06:22 80° NNE 04:33:06 10° ESE visible
21 Jun 9.6 21:41:54 10° WNW 21:47:45 32° N 21:57:42 10° NE visible
22 Jun 10.5 00:08:33 10° NW 00:18:22 34° NNE 00:35:28 10° ENE visible
22 Jun 10.5 02:34:42 10° NW 02:50:59 62° NNE 03:16:46 10° ESE visible
22 Jun 10.6 05:02:34 10° WNW 05:24:26 70° SW 05:49:55 10° SE visible
22 Jun 8.8 20:30:36 10° W 20:35:32 40° NNW 20:43:37 10° NE visible
22 Jun 10.2 22:57:12 10° NW 23:04:33 28° N 23:16:59 10° ENE visible
